Regional Weather Roundup
Issued by NWS

Home | Current Version | Previous Version | Graphics & Text | Print | Product List | Glossary On
Versions: 1 2 3 4 5 6 7 8 9 10 11 12 13 14 15 16 17 18 19 20 21 22 23 24 25 26 27 28 29 30 31 32 33 34 35 36 37 38 39 40 41 42 43 44 45 46 47 48 49 50
077
ASUS43 KOAX 200402
RWRNE

WEATHER ROUNDUP FOR NEBRASKA
NATIONAL WEATHER SERVICE OMAHA NE
1000 PM CST SUN FEB 19 2017

NOTES: SATELLITE DATA IS BEING USED TO AUGMENT CLOUD COVER ABOVE
       12000 FEET.
       "FAIR" INDICATES FEW OR NO CLOUDS BELOW 12,000 FEET WITH NO
       SIGNIFICANT WEATHER AND/OR OBSTRUCTIONS TO VISIBILITY.

  * THESE STATIONS DO NOT REPORT WEATHER SUCH AS RAIN...SNOW OR FOG.

NEZ001>004-019>022-054>056-200500-
NEBRASKA PANHANDLE

CITY           SKY/WX    TMP DP  RH WIND       PRES   REMARKS
SCOTTSBLUFF    CLOUDY    50  35  56 NW10      29.63R
ALLIANCE       CLOUDY    51  36  56 SW18G25   29.60R
CHADRON        CLOUDY    49  36  61 W5        29.59R
KIMBALL        CLOUDY    49  38  65 NW13      29.65S
SIDNEY         CLOUDY    52  27  38 S12       29.62R
$$

NEZ057>060-069>072-079>082-200500-
SOUTHWEST NEBRASKA

CITY           SKY/WX    TMP DP  RH WIND       PRES   REMARKS
NORTH PLATTE   CLOUDY    60  48  64 SE16G29   29.61F
IMPERIAL       PTCLDY    58  30  34 S14       29.63R
LEXINGTON      PTCLDY    56  51  81 S22G28    29.70F
MCCOOK         MOCLDY    58  51  78 S17       29.66F
OGALLALA       PTCLDY    56  34  42 SW3       29.63R
$$

NEZ005>010-023>029-035>040-094-200500-
NORTH CENTRAL NEBRASKA

CITY           SKY/WX    TMP DP  RH WIND       PRES   REMARKS
VALENTINE      PTCLDY    60  44  55 S17G28    29.59F
AINSWORTH      CLOUDY    58  47  67 S17G23    29.62S
BROKEN BOW     CLOUDY    56  49  77 S22G31    29.69R
O`NEILL        CLOUDY    56  49  78 S13G23    29.69S
ORD            CLOUDY    55  48  77 S17G24    29.71R
THEDFORD       CLOUDY    59  47  66 SE22G29   29.60F
$$

NEZ041-046>049-061>064-073>077-083>087-200500-
SOUTH CENTRAL NEBRASKA

CITY           SKY/WX    TMP DP  RH WIND       PRES   REMARKS
GRAND ISLAND   CLOUDY    54  52  93 S16G24    29.76S
AURORA         CLOUDY    54  51  89 S17G23    29.77F
HASTINGS       PTCLDY    55  51  86 S16G23    29.78R
HEBRON         MOCLDY    57  52  83 S13       29.81S
HOLDREGE       PTCLDY    54  50  86 S17G24    29.74S
KEARNEY *      CLOUDY    55  48  76 S20       29.76R
YORK           CLOUDY    54  50  87 S10       29.79F
$$

NEZ011>018-030>034-042>045-200500-
NORTHEAST NEBRASKA

CITY           SKY/WX    TMP DP  RH WIND       PRES   REMARKS
NORFOLK        CLOUDY    56  49  77 S20G28    29.75R
ALBION         CLOUDY    55  49  80 S13       29.75R
BLAIR          PTCLDY    58  53  83 S16G24    29.83R
FREMONT        CLOUDY    56  51  84 S17       29.82R
TEKAMAH        PTCLDY    57  51  80 S16       29.82R
WAYNE          CLOUDY    55  51  87 S16       29.76S
$$

NEZ050>053-065>068-078-088>093-200500-
SOUTHEAST NEBRASKA

CITY           SKY/WX    TMP DP  RH WIND       PRES   REMARKS
LINCOLN        CLOUDY    55  52  89 S13       29.82R
OMAHA EPPLEY   PTCLDY    59  52  77 S15       29.84R
BEATRICE       MOCLDY    58  54  86 S10       29.83F
FALLS CITY     MOCLDY    58  53  84 S8        29.87R
NEBRASKA CITY  PTCLDY    57  51  79 SW15      29.87R
PLATTSMOUTH    PTCLDY    56  51  81 S12       29.86R
$$

NEZ044-045-051>053-067-200500-
OMAHA AREA

CITY           SKY/WX    TMP DP  RH WIND       PRES   REMARKS
OMAHA EPPLEY   PTCLDY    59  52  77 S15       29.84R
BLAIR          PTCLDY    58  53  83 S16G24    29.83R
FREMONT        CLOUDY    56  51  84 S17       29.82R
MILLARD        PTCLDY    60  55  83 S9        29.85R
OFFUTT AFB     CLOUDY    58  58 100 S14       29.85R
PLATTSMOUTH    PTCLDY    56  51  81 S12       29.86R
WAHOO          FAIR      54  50  87 S15       29.82R
$$




USA.gov is the U.S. government's official web portal to all federal, state and local government web resources and services.